Погода в Архангельском

Россия / Пензенская область     53°10′42″N   45°51′24″E
темп.,
°C
ветер,
м/с
пор.,
м/с
влажн.,
%
обл.,
%
осадки,
мм/ч
давл.,
гПа
погр.,
м
25 июня, сб
сб2500:00+14ссв412905 0.0 1011319
03:00+12ссв310932 0.0 1013197
06:00+16ссв49830 0.0 1013265
09:00+22ссв575612 0.0 10141156
12:00+24ссв57485 0.0 10141924
15:00+24ссв674811 0.0 10142030
18:00+22с586473 0.0 1014779
21:00+16с33885 0.1 101646
26 июня, вс
вс2600:00+16ссз2286100 0.0 101622
03:00+15с23910 0.0 101746
06:00+17с310780 0.0 1017344
09:00+21ссв69500 0.0 10181191
12:00+22ссв68420 0.0 10191457
15:00+22ссв67440 0.0 10191425
18:00+20ссв47590 0.0 1019867
21:00+14с22790 0.0 102026
27 июня, пн
пн2700:00+12с22820 0.0 102117
03:00+12сз12840 0.0 102111
06:00+16зсз24750 0.0 1021132
09:00+21зсз34560 0.0 1020613
12:00+25зсз45500 0.0 10191163
15:00+26зсз67548 0.0 10171440
18:00+23зсз510812 2.9 1016371
21:00+19з37930 4.4 1016107
28 июня, вт
вт2800:00+17с34940 0.1 101660
03:00+15ссв38974 0.1 1016191
06:00+15св410900 0.0 1018435
09:00+18св57520 0.0 10191010
12:00+20ссв57450 0.0 10191740
15:00+19ссв66445 0.0 10191924
18:00+17ссв56576 0.0 10201151
21:00+11ссв38750 0.0 1022161
29 июня, ср
ср2900:00+8св11850 0.0 102210
03:00+7ссз22850 0.0 102315
06:00+11с25670 0.0 1023187
09:00+16с45454 0.0 10221547
12:00+18ссв45415 0.0 10221923
15:00+19с454329 0.0 10222016
18:00+17с45562 0.0 10211133
21:00+12ссз23745 0.0 102237